User: anonymous   Login
Location: Columbia
(38.9520°N, 92.3340°W)
Time: 15:47:50
(UTC-05:00)
Language:

Cosmos 2100 Rocket - Orbit

View from above orbital plane
View from above orbital plane
View from above satellite
View from above satellite

Ground track
Ground track

The orbit data is extracted from the following two-line orbital elements,

1 20805U 90083B   18116.20259875  .00000049  00000-0  35176-4 0  9999
2 20805  82.9392 188.5654 0029450 237.5645 174.0105 13.75847970386443
Epoch (UTC): 26 April 2018 04:51:44
Eccentricity: 0.0029450
inclination: 82.9392°
perigee height: 957 km
apogee height: 1000 km
right ascension of ascending node: 188.5654°
argument of perigee: 237.5645°
revolutions per day: 13.75847970
mean anomaly at epoch: 174.0105°
orbit number at epoch: 38644

The dashed part of the orbit path shows where the satellite is in the earth's shadow,  

DLR